Location: *
(32.8667°N, 13.1833°E)
Time: 17:37:21
(UTC+00:00)

Cosmos 1340 Rocket - Pass Details

Date: 18 July 2019
Orbit: 530 x 559 km, 81.2° (Epoch: 24 August)

Event Time Altitude Azimuth Distance (km) Brightness Sun altitude
Rises 19:43:35 0° 352° (N) 2,748 7.2 -16.5°
Reaches altitude 10° 19:45:46 10° 352° (N) 1,850 6.2 -16.8°
Maximum altitude 19:49:52 90° 249° (WSW) 564 2.8 -17.5°
Enters shadow 19:51:48 30° 173° (S) 1,006 3.7 -17.8°
